Simultaneous Nadir Overpasses (SNOs) Predictions

Prediction of SNOs between LANDSAT-8 and NOAA-19 Satellite Orbit:

Table of predicted SNOs for the next 14.0 days since TLE Epoch: 3/4/2016
Index Date (LANDSAT-8) Time (LANDSAT-8) Lat,Lon (LANDSAT-8) SZA (LANDSAT-8 ) Date (NOAA-19) Time (NOAA-19) Lat,Lon (NOAA-19) SZA (NOAA-19 ) Distance(km) Time Diff (sec)
1 03/05/2016 11:22:44 -74.30,-167.00 100.01 03/05/2016 11:21:59 -74.30,-166.88 100.01 3.56 45
2 03/05/2016 12:12:11 74.22, 0.47 79.90 03/05/2016 12:13:05 74.24, 0.51 79.92 2.47 54
3 03/07/2016 16:56:26 74.33, -70.36 79.16 03/07/2016 16:56:14 74.33, -70.48 79.16 3.65 12
4 03/07/2016 17:45:55 -74.25, 97.11 100.93 03/07/2016 17:47:07 -74.23, 97.07 100.96 3.23 72
5 03/09/2016 21:40:38 74.58,-140.82 78.56 03/09/2016 21:39:27 74.62,-142.02 78.59 35.65 71
6 03/09/2016 22:30:11 -74.31, 26.16 101.74 03/09/2016 22:30:16 -74.31, 26.11 101.73 1.78 5
7 03/12/2016 03:14:27 -74.35, -44.81 102.56 03/12/2016 03:13:24 -74.36, -44.74 102.55 1.93 63
8 03/12/2016 04:03:54 74.27, 122.64 77.35 03/12/2016 04:04:29 74.29, 122.66 77.38 2.61 35
9 03/14/2016 08:48:09 74.36, 51.78 76.58 03/14/2016 08:47:37 74.36, 51.75 76.58 0.81 32
10 03/14/2016 09:37:38 -74.29,-140.74 103.51 03/14/2016 09:38:32 -74.30,-140.83 103.50 2.69 54
11 03/16/2016 14:21:54 -74.33, 148.27 104.34 03/16/2016 14:21:40 -74.35, 148.30 104.32 2.73 14
12 03/16/2016 15:11:28 73.88, -45.13 75.19 03/16/2016 15:12:36 73.89, -43.27 75.23 57.36 68




NCC Satellite Simultaneous Nadir Overpasses (SNOs) Prediction Service
